Regional Weather Roundup
Issued by NWS Green Bay, WI

Home | Current Version | Previous Version | Text Only | Print | Product List | Glossary On
Versions: 1 2 3 4 5 6 7 8 9 10 11 12 13 14 15 16 17 18 19 20 21 22 23 24 25 26 27 28 29 30 31 32 33 34 35 36 37 38 39 40 41 42 43 44 45 46 47 48 49 50
000
ASUS43 KGRB 281600
RWRGRB

NORTH-CENTRAL AND NORTHEAST WISCONSIN REGIONAL WEATHER ROUNDUP
NATIONAL WEATHER SERVICE GREEN BAY WI
1100 AM CDT THU MAY 28 2015

WIZ005-009-010>012-018-019-281700-
NORTH CENTRAL WISCONSIN

CITY           SKY/WX    TMP DP  RH WIND       PRES   REMARKS
IRONWOOD       SUNNY     75  63  64 CALM      30.04F
MANITOWISH WTR NOT AVBL
ARBOR VITAE    NOT AVBL
EAGLE RIVER    NOT AVBL
LAND O LAKES   NOT AVBL
RHINELANDER    SUNNY     78  59  51 SW9       30.14S
PHILLIPS       NOT AVBL
ANTIGO         NOT AVBL
TOMAHAWK       NOT AVBL
MERRILL        NOT AVBL
$$

WIZ013-073-281700-
NORTHEAST WISCONSIN

CITY           SKY/WX    TMP DP  RH WIND       PRES   REMARKS
IRON MOUNTAIN  SUNNY     69  58  67 SE6       30.14F
MARINETTE      SUNNY     61  52  72 E10       30.16S
$$

WIZ017-030-035>037-045-281700-
CENTRAL WISCONSIN

CITY           SKY/WX    TMP DP  RH WIND       PRES   REMARKS
MEDFORD        NOT AVBL
WAUSAU         SUNNY     75  61  61 S7        30.12F
MOSINEE        SUNNY     73  63  68 SW8       30.15F
MARSHFIELD     SUNNY     78  59  51 SW9       30.13F
WISC RAPIDS    SUNNY     78  60  53 SW6       30.15F
STEVENS POINT  NOT AVBL
WAUPACA        NOT AVBL
SHAWANO        NOT AVBL
CLINTONVILLE   NOT AVBL
$$

WIZ038-039-048-051-281700-
FOX VALLEY

CITY           SKY/WX    TMP DP  RH WIND       PRES   REMARKS
NWS GREEN BAY  SUNNY     76  64  66 S8        30.15F
APPLETON       SUNNY     75  59  57 SW8       30.17S
OSHKOSH        SUNNY     78  60  53 SW6       30.16S
FOND DU LAC    SUNNY     77  61  57 SW9       30.17F
$$

WIZ022-050-052-281700-
EAST CENTRAL WISCONSIN

CITY           SKY/WX    TMP DP  RH WIND       PRES   REMARKS
STURGEON BAY   SUNNY     70  61  73 SE7       30.19S
MANITOWOC      NOT AVBL
SHEBOYGAN      SUNNY     78  60  53 W9        30.17F
$$

LMZ563-521-522-541>543-281700-
LAKESHORE

STATION/POSITION TIME  TEMP    WIND        PRES    VSBY  WAVE
                       AIR SEA DIR/SP/G                  HT/PER
                 (UTC) (F)     (DEG/KT/KT) (MB)    (MI)  (FT/S)
SHEBOYGAN LKSHOR 1500   59     170/ 13/ 16 1022.1R
KEWAUNEE LKSHORE 1500   47     170/  4/  5 1021.2R
ALGOMA MARINA    1508          200/  8/  9   N/A
NORTHPORT PIER   1500   50     140/  5/  8 1021.3S
N MID LAKE BUOY  1450   40 37  120/  4/  4 1022.2F         1/ 4
SISTER BAY LKSHO 1518   59     340/  6/  7   N/A
CHAMBERS ISLAND  1500   54      10/  5/  7 1021.7R
MENOMINEE LKSHOR 1500   54      30/  8/  9 1021.9R
$$


USA.gov is the U.S. government's official web portal to all federal, state and local government web resources and services.